Wind_Speed
9 9 9 10 10 10 11 11 10 10 11 11 11 11 11 11 11 12 12 13 13 14 14 14 15 16 16 17 17 17 18 18 19 19 20 20 21 21
10 10 10 11 11 11 12 12 12 12 12 12 13 13 13 12 12 13 14 14 15 15 15 15 16 17 17 18 19 18 18 19 19 20 21 21 22 21
11 11 11 11 12 12 12 13 13 13 13 13 13 13 13 13 13 14 15 15 15 15 16 16 17 18 18 19 19 19 20 20 20 20 21 21 21 21
12 11 11 12 12 12 13 13 13 13 14 14 13 14 14 14 14 15 16 16 16 16 17 18 19 19 20 20 20 20 20 21 21 21 21 21 21 21
13 13 13 13 13 13 14 14 14 15 15 15 14 15 15 16 16 16 17 17 17 17 18 19 20 20 20 21 21 21 20 21 21 21 22 22 22 22
14 14 14 14 14 15 15 15 15 15 16 16 16 17 17 17 17 17 18 18 18 18 19 19 20 20 21 21 21 21 21 21 22 22 22 23 23 23
15 14 14 15 16 16 15 16 16 16 17 17 17 17 17 18 18 19 19 19 19 19 19 20 20 20 20 21 21 21 21 22 22 22 22 23 24 23
15 15 15 16 17 17 17 17 17 17 17 18 18 18 19 19 19 20 20 20 21 21 21 21 21 20 20 20 21 21 21 22 22 22 22 23 24 24
16 16 17 17 17 18 18 19 18 18 18 18 18 19 19 19 20 21 21 21 22 22 22 22 22 21 21 21 21 21 22 23 23 23 24 24 25 24
18 18 18 19 18 18 19 19 19 19 19 19 19 20 20 21 22 22 22 22 22 23 22 22 23 22 22 22 23 23 23 24 24 25 25 25 25 24
20 21 21 21 20 20 20 20 19 19 20 20 21 21 22 23 23 24 24 23 23 23 23 23 23 24 23 23 23 24 24 24 25 25 25 25 25 25
24 24 24 23 22 22 21 21 21 21 21 22 22 22 23 24 25 25 26 25 25 25 25 25 25 25 25 25 25 25 24 25 25 26 26 25 25 25
25 25 26 25 24 24 23 23 23 23 24 24 23 24 24 24 24 25 26 26 26 26 26 27 27 27 27 26 26 26 26 26 26 26 26 26 26 25
27 26 27 27 26 25 24 24 25 25 24 24 25 25 25 26 26 27 27 26 26 27 27 27 27 27 26 26 26 27 28 28 27 27 27 26 26 25
28 28 28 28 27 26 26 26 26 26 26 27 27 27 27 27 28 28 28 27 27 27 28 27 27 26 26 26 26 27 27 27 27 26 26 26 25 25
28 28 28 28 28 28 28 28 28 28 28 28 28 28 28 28 29 29 29 29 29 29 29 28 28 27 27 27 27 27 27 27 27 27 26 26 25 25
30 29 28 29 29 29 29 29 29 29 29 29 30 30 30 30 30 30 30 30 31 31 31 30 29 28 27 27 27 27 27 28 28 27 26 26 26 25
31 30 29 29 29 29 29 29 29 30 30 30 31 32 32 31 31 32 31 31 31 30 30 30 29 28 27 27 28 28 28 29 29 28 27 26 25 25
30 29 30 30 30 30 30 30 30 30 31 31 31 32 32 33 33 32 32 32 31 31 31 31 30 29 29 28 29 30 30 30 29 29 28 27 26 25
29 29 30 31 32 31 31 31 31 31 32 33 33 33 33 32 32 33 33 33 33 33 32 32 31 31 31 30 30 30 31 31 30 29 29 28 26 26
30 30 31 32 32 32 32 32 32 32 32 33 34 34 34 33 33 34 34 34 34 34 33 32 32 32 31 31 31 31 31 30 30 30 30 29 28 27
32 32 32 33 33 32 32 33 33 33 34 35 35 35 36 35 35 35 35 35 34 33 32 32 33 33 32 32 32 32 32 31 31 30 30 30 30 28
34 34 33 33 33 34 35 35 35 35 34 34 35 36 36 37 37 36 35 35 34 33 33 32 33 33 33 33 32 32 32 32 31 30 30 31 30 29
Wind_Direction
306 304 302 303 305 305 304 305 308 308 308 309 311 309 307 306 307 309 312 309 307 306 306 307 306 305 305 304 304 303 303 301 300 298 298 298 298 297
307 305 301 300 302 305 304 302 301 304 307 308 307 308 306 305 305 308 309 307 304 304 304 304 303 304 303 304 304 302 300 299 299 297 297 296 296 295
306 305 302 301 303 304 306 305 302 300 302 304 303 305 304 302 304 305 306 305 305 303 302 303 303 303 303 304 303 301 299 298 298 298 298 297 296 295
302 303 304 305 305 307 305 302 301 300 300 300 300 300 302 300 302 303 304 303 304 303 301 302 302 302 303 303 303 302 300 299 297 298 297 297 296 295
299 298 301 304 305 306 304 303 303 301 299 298 297 299 299 298 299 302 304 302 302 303 302 302 301 301 302 302 303 302 299 297 297 297 297 297 297 295
298 296 298 299 300 302 304 304 304 303 300 298 297 297 298 297 297 299 302 301 301 301 301 302 301 302 302 302 301 301 299 298 298 298 298 299 299 297
296 296 297 297 299 300 301 301 301 301 300 300 299 298 299 299 298 296 297 298 300 300 300 300 301 301 301 301 301 302 301 300 300 298 298 300 301 299
293 295 296 296 298 299 299 300 301 301 301 299 301 300 298 297 297 297 297 298 299 299 300 300 300 300 299 298 299 301 302 299 300 299 300 300 301 301
294 296 296 296 297 298 298 298 297 297 297 297 298 300 299 296 296 297 297 298 298 300 300 300 300 300 298 297 298 300 300 300 298 298 300 301 302 302
294 294 294 296 296 299 300 299 296 295 294 294 295 297 296 296 295 294 295 296 297 298 298 299 298 298 298 297 297 299 300 299 300 301 301 301 302 302
292 291 292 292 294 296 297 297 295 293 293 293 293 294 295 294 295 294 295 295 294 294 294 295 296 296 297 297 297 298 299 300 301 303 301 301 301 302
290 290 291 291 291 293 294 294 294 292 292 292 292 294 295 294 294 295 296 295 294 293 292 293 294 295 295 294 296 297 298 298 299 302 304 301 301 302
287 288 289 288 289 291 291 293 293 291 291 292 292 293 294 294 295 296 297 295 294 294 293 292 292 293 293 293 294 295 297 298 299 301 303 302 302 302
286 286 287 287 287 288 290 293 292 291 291 291 292 293 293 294 294 294 295 296 295 295 293 292 293 294 294 293 294 294 295 296 299 300 302 303 303 300
285 284 284 284 285 285 288 290 291 290 291 293 293 293 292 292 293 293 293 293 293 292 291 291 291 292 294 295 294 294 295 296 297 298 299 300 301 300
282 282 283 284 285 285 286 286 287 289 291 293 293 294 293 293 293 293 292 292 292 291 289 287 287 289 292 293 294 294 295 298 297 297 297 297 297 298
281 283 284 284 284 285 286 286 286 287 288 290 291 292 292 292 292 294 293 291 290 290 289 287 287 289 290 291 291 293 294 295 296 296 297 297 298 298
281 284 285 284 282 282 282 284 284 284 285 287 289 290 290 290 290 291 293 291 291 290 289 288 288 288 290 290 290 290 291 292 294 295 296 296 296 296
283 284 283 284 284 283 283 283 284 284 284 285 288 290 290 289 288 289 290 290 290 290 289 288 286 286 287 288 289 289 289 290 292 293 294 293 293 292
284 283 283 284 283 283 284 283 283 284 285 286 286 287 288 289 289 288 288 289 289 288 288 287 287 287 286 287 288 288 288 288 289 290 291 291 289 290
281 281 282 283 283 284 285 285 284 284 285 286 285 285 285 286 286 287 287 288 288 288 288 287 286 286 286 286 286 287 287 286 287 288 287 289 289 289
280 281 282 283 284 284 285 286 286 285 286 285 285 285 286 286 286 286 287 288 289 290 289 287 286 285 285 286 286 287 287 286 286 286 286 287 288 287
280 281 283 285 285 285 285 285 287 288 287 286 285 286 286 286 287 286 286 288 289 288 287 286 284 283 284 286 287 287 287 287 285 286 286 285 285 285
Height
5876 5875 5875 5874 5873 5872 5871 5871 5870 5869 5869 5868 5867 5866 5866 5864 5864 5863 5862 5861 5860 5859 5858 5857 5856 5854 5853 5852 5850 5848 5847 5845 5844 5842 5841 5839 5837 5835
5874 5873 5872 5871 5870 5869 5868 5867 5867 5866 5866 5866 5864 5863 5863 5862 5860 5859 5859 5858 5856 5855 5854 5853 5852 5850 5849 5847 5845 5844 5842 5840 5839 5837 5835 5834 5832 5829
5871 5870 5869 5868 5867 5866 5865 5864 5863 5863 5863 5862 5861 5860 5859 5858 5857 5856 5855 5854 5853 5852 5850 5849 5848 5846 5844 5843 5841 5839 5837 5835 5834 5832 5830 5828 5826 5824
5868 5867 5866 5865 5864 5863 5862 5861 5860 5859 5859 5858 5857 5856 5856 5855 5854 5853 5851 5850 5849 5848 5846 5845 5843 5842 5840 5838 5836 5834 5832 5830 5828 5826 5824 5822 5820 5818
5865 5864 5863 5862 5861 5860 5858 5857 5856 5855 5855 5854 5853 5852 5851 5850 5849 5848 5847 5846 5845 5843 5841 5840 5838 5837 5835 5833 5831 5829 5827 5825 5823 5821 5818 5816 5814 5812
5862 5861 5860 5859 5858 5856 5855 5853 5852 5852 5851 5850 5849 5848 5847 5846 5845 5844 5842 5841 5840 5838 5837 5835 5833 5831 5829 5827 5826 5823 5821 5819 5817 5815 5812 5810 5808 5805
5858 5857 5856 5855 5854 5852 5851 5850 5849 5847 5846 5845 5845 5844 5842 5841 5840 5839 5837 5836 5834 5833 5831 5830 5828 5826 5824 5822 5820 5818 5816 5813 5811 5809 5807 5804 5802 5799
5854 5853 5852 5851 5850 5848 5847 5846 5844 5843 5842 5841 5840 5839 5837 5836 5835 5833 5832 5831 5829 5828 5826 5824 5822 5821 5819 5817 5814 5812 5810 5808 5805 5803 5801 5798 5795 5793
5850 5849 5848 5847 5845 5844 5843 5841 5839 5838 5837 5836 5835 5833 5832 5831 5830 5828 5826 5825 5824 5822 5820 5818 5816 5815 5813 5811 5808 5806 5804 5802 5799 5797 5794 5792 5789 5786
5845 5844 5843 5842 5841 5839 5838 5836 5834 5833 5831 5830 5829 5827 5826 5824 5823 5822 5820 5819 5818 5816 5814 5812 5810 5808 5807 5805 5802 5800 5798 5795 5793 5790 5788 5785 5783 5780
5840 5839 5838 5836 5835 5834 5832 5830 5828 5827 5825 5824 5823 5821 5820 5818 5817 5815 5814 5813 5811 5810 5808 5806 5804 5802 5800 5798 5796 5794 5791 5789 5786 5784 5781 5779 5776 5774
5834 5833 5832 5830 5829 5827 5825 5824 5822 5821 5819 5818 5816 5815 5813 5812 5810 5809 5807 5806 5804 5803 5801 5799 5797 5795 5793 5791 5789 5787 5785 5782 5780 5777 5775 5772 5769 5767
5827 5826 5825 5823 5822 5821 5819 5817 5816 5814 5813 5811 5809 5808 5807 5806 5804 5802 5800 5798 5797 5795 5793 5791 5789 5787 5785 5784 5782 5780 5778 5775 5773 5770 5768 5765 5762 5760
5819 5819 5817 5816 5815 5814 5812 5810 5808 5807 5805 5804 5803 5802 5800 5799 5797 5795 5793 5790 5788 5787 5785 5783 5781 5779 5778 5776 5774 5772 5770 5768 5766 5763 5761 5758 5755 5753
5811 5810 5809 5808 5807 5806 5804 5802 5801 5799 5798 5797 5795 5794 5792 5791 5789 5787 5785 5783 5781 5779 5777 5775 5773 5771 5770 5768 5766 5764 5762 5760 5758 5756 5753 5751 5748 5746
5803 5802 5800 5799 5798 5797 5796 5795 5793 5792 5790 5789 5787 5786 5784 5782 5781 5779 5777 5775 5773 5771 5769 5767 5764 5763 5762 5760 5758 5756 5754 5752 5750 5748 5746 5743 5741 5738
5794 5793 5792 5790 5790 5788 5787 5786 5785 5783 5782 5780 5779 5777 5775 5774 5772 5770 5768 5767 5764 5763 5761 5758 5756 5755 5753 5752 5750 5748 5746 5744 5742 5740 5738 5736 5733 5731
5784 5783 5783 5781 5780 5779 5778 5777 5776 5774 5773 5772 5770 5768 5767 5765 5763 5761 5759 5757 5755 5753 5751 5750 5748 5746 5745 5743 5742 5740 5738 5736 5734 5731 5730 5728 5726 5723
5775 5774 5773 5773 5771 5770 5768 5767 5766 5765 5764 5762 5761 5759 5757 5756 5754 5752 5750 5748 5746 5744 5742 5740 5739 5737 5736 5735 5733 5731 5729 5727 5725 5723 5721 5719 5717 5716
5766 5765 5764 5763 5762 5760 5759 5757 5756 5755 5754 5752 5750 5749 5747 5746 5744 5742 5741 5739 5737 5734 5732 5730 5729 5728 5727 5726 5724 5722 5720 5718 5716 5714 5712 5710 5708 5707
5756 5755 5754 5753 5752 5750 5749 5747 5746 5745 5743 5742 5740 5738 5737 5735 5734 5732 5731 5729 5726 5724 5722 5720 5720 5718 5716 5715 5714 5713 5711 5709 5707 5705 5703 5702 5700 5698
5746 5745 5744 5743 5741 5740 5738 5737 5736 5734 5732 5731 5729 5728 5726 5724 5723 5722 5720 5718 5716 5714 5712 5711 5709 5707 5706 5705 5704 5703 5701 5699 5697 5695 5693 5692 5690 5689
5735 5734 5734 5733 5731 5730 5728 5726 5725 5723 5722 5720 5718 5717 5715 5713 5711 5710 5709 5707 5706 5704 5702 5700 5699 5698 5697 5695 5694 5692 5691 5688 5687 5685 5684 5682 5681 5679